TimeEDT,TemperatureF,Dew PointF,Humidity,Sea Level PressureIn,VisibilityMPH,Wind Direction,Wind SpeedMPH,Gust SpeedMPH,PrecipitationIn,Events,Conditions,WindDirDegrees,DateUTC
12:15 AM,64.4,60.8,88,29.96,2.0,West,4.6,-,N/A,Rain,Light Rain,270,2013-06-10 04:15:00
12:35 AM,64.4,62.6,94,29.95,5.0,Calm,Calm,-,N/A,,Overcast,0,2013-06-10 04:35:00
12:55 AM,64.4,62.6,94,29.94,4.0,Calm,Calm,-,N/A,Rain,Rain,0,2013-06-10 04:55:00
1:15 AM,64.4,62.6,94,29.93,5.0,Calm,Calm,-,N/A,,Overcast,0,2013-06-10 05:15:00
1:35 AM,64.4,60.8,88,29.93,5.0,Calm,Calm,-,N/A,,Overcast,0,2013-06-10 05:35:00
1:55 AM,64.4,60.8,88,29.92,5.0,Calm,Calm,-,N/A,,Mostly Cloudy,0,2013-06-10 05:55:00
2:15 AM,64.4,62.6,94,29.91,5.0,East,3.5,-,N/A,,Mostly Cloudy,80,2013-06-10 06:15:00
2:35 AM,64.4,62.6,94,29.91,4.0,Calm,Calm,-,N/A,Rain,Rain,0,2013-06-10 06:35:00
2:55 AM,64.4,62.6,94,29.91,5.0,Calm,Calm,-,N/A,Rain,Light Rain,0,2013-06-10 06:55:00
3:15 AM,64.4,62.6,94,29.90,4.0,Calm,Calm,-,N/A,Rain,Rain,0,2013-06-10 07:15:00
3:35 AM,64.4,62.6,94,29.89,3.0,Calm,Calm,-,N/A,Rain,Rain,0,2013-06-10 07:35:00
3:55 AM,64.4,62.6,94,29.88,3.0,ENE,3.5,-,N/A,Rain,Light Rain,60,2013-06-10 07:55:00
4:15 AM,64.4,62.6,94,29.88,3.0,ENE,3.5,-,N/A,,Overcast,70,2013-06-10 08:15:00
4:35 AM,64.4,62.6,94,29.87,3.0,ENE,4.6,-,N/A,Rain,Rain,60,2013-06-10 08:35:00
4:55 AM,64.4,62.6,94,29.87,4.0,ENE,4.6,-,N/A,Rain,Rain,70,2013-06-10 08:55:00
5:15 AM,64.4,62.6,94,29.87,3.0,ENE,4.6,-,N/A,Rain,Rain,60,2013-06-10 09:15:00
5:35 AM,64.4,62.6,94,29.86,3.0,ENE,4.6,-,N/A,,Overcast,70,2013-06-10 09:35:00
5:55 AM,64.4,62.6,94,29.85,3.0,ENE,3.5,-,N/A,,Overcast,70,2013-06-10 09:55:00
6:15 AM,64.4,62.6,94,29.85,3.0,East,3.5,-,N/A,Rain,Rain,80,2013-06-10 10:15:00
6:35 AM,64.4,62.6,94,29.85,2.5,Calm,Calm,-,N/A,,Overcast,0,2013-06-10 10:35:00
6:55 AM,64.4,62.6,94,29.85,2.0,Calm,Calm,-,N/A,,Overcast,0,2013-06-10 10:55:00
7:15 AM,64.4,62.6,94,29.85,1.5,East,3.5,-,N/A,Rain,Light Rain,80,2013-06-10 11:15:00
7:35 AM,64.4,62.6,94,29.84,1.5,Calm,Calm,-,N/A,Rain,Rain,0,2013-06-10 11:35:00
7:55 AM,64.4,62.6,94,29.84,1.5,Calm,Calm,-,N/A,Rain,Light Rain,0,2013-06-10 11:55:00
8:15 AM,66.2,62.6,88,29.84,2.0,Calm,Calm,-,N/A,Rain,Rain,0,2013-06-10 12:15:00
8:35 AM,66.2,62.6,88,29.84,2.0,Calm,Calm,-,N/A,Rain,Light Rain,0,2013-06-10 12:35:00
8:55 AM,66.2,64.4,94,29.84,2.0,SE,3.5,-,N/A,Rain,Rain,130,2013-06-10 12:55:00
9:15 AM,66.2,64.4,94,29.83,2.0,Calm,Calm,-,N/A,Rain,Light Rain,0,2013-06-10 13:15:00
9:35 AM,66.2,64.4,94,29.83,2.5,SSE,3.5,-,N/A,Rain,Light Rain,160,2013-06-10 13:35:00
9:55 AM,68.0,64.4,88,29.83,2.5,SSE,4.6,-,N/A,Rain,Light Rain,160,2013-06-10 13:55:00
10:15 AM,68.0,64.4,88,29.82,3.0,South,3.5,-,N/A,Rain,Light Rain,170,2013-06-10 14:15:00
10:35 AM,68.0,64.4,88,29.81,3.0,SE,4.6,-,N/A,Rain,Light Rain,140,2013-06-10 14:35:00
10:55 AM,68.0,64.4,88,29.80,5.0,SSE,3.5,-,N/A,Rain,Light Rain,160,2013-06-10 14:55:00
11:15 AM,68.0,64.4,88,29.80,5.0,Calm,Calm,-,N/A,,Light Drizzle,0,2013-06-10 15:15:00
11:35 AM,68.0,64.4,88,29.80,5.0,Calm,Calm,-,N/A,Rain,Light Rain,0,2013-06-10 15:35:00
11:55 AM,69.8,64.4,83,29.81,7.0,Calm,Calm,-,N/A,,Overcast,0,2013-06-10 15:55:00
12:15 PM,69.8,64.4,83,29.80,7.0,Calm,Calm,-,N/A,,Overcast,0,2013-06-10 16:15:00
12:35 PM,68.0,64.4,88,29.80,4.0,West,4.6,-,N/A,Rain,Rain,270,2013-06-10 16:35:00
12:55 PM,68.0,62.6,83,29.80,10.0,Calm,Calm,-,N/A,,Overcast,0,2013-06-10 16:55:00
1:15 PM,69.8,62.6,78,29.80,10.0,West,3.5,-,N/A,,Overcast,270,2013-06-10 17:15:00
1:35 PM,69.8,62.6,78,29.78,10.0,Calm,Calm,-,N/A,,Overcast,0,2013-06-10 17:35:00
1:55 PM,69.8,64.4,83,29.78,10.0,Calm,Calm,-,N/A,,Mostly Cloudy,0,2013-06-10 17:55:00
2:15 PM,69.8,64.4,83,29.78,10.0,East,3.5,-,N/A,Rain,Light Rain,90,2013-06-10 18:15:00
2:35 PM,66.2,60.8,83,29.79,3.0,WSW,8.1,-,N/A,Rain,Heavy Rain,250,2013-06-10 18:35:00
2:55 PM,66.2,60.8,83,29.78,10.0,Calm,Calm,-,N/A,,Overcast,0,2013-06-10 18:55:00
3:15 PM,68.0,62.6,83,29.78,10.0,North,3.5,-,N/A,,Overcast,360,2013-06-10 19:15:00
3:35 PM,69.8,64.4,83,29.78,10.0,Calm,Calm,-,N/A,,Overcast,0,2013-06-10 19:35:00
3:55 PM,69.8,64.4,83,29.78,10.0,NW,3.5,-,N/A,,Overcast,320,2013-06-10 19:55:00
4:15 PM,71.6,64.4,78,29.77,10.0,NNW,4.6,-,N/A,,Overcast,340,2013-06-10 20:15:00
4:35 PM,71.6,64.4,78,29.77,10.0,Calm,Calm,-,N/A,,Overcast,0,2013-06-10 20:35:00
4:55 PM,73.4,64.4,73,29.76,10.0,NW,3.5,-,N/A,,Mostly Cloudy,310,2013-06-10 20:55:00
5:15 PM,73.4,64.4,73,29.76,10.0,SW,3.5,-,N/A,,Mostly Cloudy,230,2013-06-10 21:15:00
5:35 PM,73.4,64.4,73,29.75,10.0,SSE,6.9,-,N/A,,Mostly Cloudy,160,2013-06-10 21:35:00
5:55 PM,73.4,64.4,73,29.75,10.0,South,3.5,-,N/A,,Scattered Clouds,180,2013-06-10 21:55:00
6:15 PM,73.4,64.4,73,29.75,10.0,SSW,4.6,-,N/A,,Mostly Cloudy,210,2013-06-10 22:15:00
6:35 PM,71.6,64.4,78,29.75,10.0,Calm,Calm,-,N/A,,Overcast,0,2013-06-10 22:35:00
6:55 PM,71.6,64.4,78,29.75,10.0,Calm,Calm,-,N/A,,Overcast,0,2013-06-10 22:55:00
7:15 PM,69.8,60.8,73,29.79,10.0,West,16.1,31.1,N/A,Rain,Heavy Rain,260,2013-06-10 23:15:00
7:35 PM,64.4,60.8,88,29.79,2.5,West,4.6,-,N/A,Rain,Heavy Rain,280,2013-06-10 23:35:00
7:55 PM,64.4,60.8,88,29.78,4.0,SW,3.5,-,N/A,Rain,Rain,230,2013-06-10 23:55:00
8:15 PM,64.4,62.6,94,29.77,4.0,WSW,3.5,-,N/A,Rain,Light Rain,250,2013-06-11 00:15:00
8:35 PM,64.4,62.6,94,29.76,10.0,Calm,Calm,-,N/A,Rain,Rain,0,2013-06-11 00:35:00
8:55 PM,66.2,62.6,88,29.76,10.0,Calm,Calm,-,N/A,,Overcast,0,2013-06-11 00:55:00
9:15 PM,64.4,62.6,94,29.76,10.0,Calm,Calm,-,N/A,,Overcast,0,2013-06-11 01:15:00
9:35 PM,64.4,60.8,88,29.76,10.0,Calm,Calm,-,N/A,,Mostly Cloudy,0,2013-06-11 01:35:00
9:55 PM,64.4,60.8,88,29.76,10.0,Calm,Calm,-,N/A,,Scattered Clouds,0,2013-06-11 01:55:00
10:15 PM,64.4,60.8,88,29.77,7.0,Calm,Calm,-,N/A,,Scattered Clouds,0,2013-06-11 02:15:00
10:35 PM,64.4,62.6,94,29.78,7.0,Calm,Calm,-,N/A,,Mostly Cloudy,0,2013-06-11 02:35:00
10:55 PM,64.4,62.6,94,29.78,7.0,SSW,3.5,-,N/A,,Overcast,210,2013-06-11 02:55:00
11:15 PM,64.4,62.6,94,29.78,7.0,WSW,4.6,-,N/A,,Mostly Cloudy,240,2013-06-11 03:15:00
11:35 PM,64.4,62.6,94,29.78,10.0,WSW,3.5,-,N/A,,Mostly Cloudy,250,2013-06-11 03:35:00
11:55 PM,64.4,62.6,94,29.78,7.0,WSW,3.5,-,N/A,,Scattered Clouds,250,2013-06-11 03:55:00